QPF
0.00 0.00 0.00 0.00 0.00 0.00 0.00 0.00 0.00 0.00 0.00 0.00 0.00 0.00 0.00 0.00 0.00 0.00 0.00 0.00 0.00 0.00 0.00 0.00 0.00 0.00 0.00 0.00 0.00 0.00 0.00 0.00 0.00 0.00 0.00 0.00 0.00 0.00 0.00 0.00 0.00 0.00 0.00 0.00
0.00 0.00 0.00 0.00 0.00 0.00 0.00 0.00 0.00 0.00 0.00 0.00 0.00 0.00 0.00 0.00 0.00 0.00 0.00 0.00 0.00 0.00 0.00 0.00 0.00 0.00 0.00 0.00 0.00 0.00 0.00 0.00 0.00 0.00 0.00 0.00 0.00 0.00 0.00 0.00 0.00 0.00 0.00 0.00
0.00 0.00 0.00 0.00 0.00 0.00 0.00 0.00 0.00 0.00 0.00 0.00 0.00 0.00 0.00 0.00 0.00 0.00 0.00 0.00 0.00 0.00 0.00 0.00 0.00 0.00 0.00 0.00 0.00 0.00 0.00 0.00 0.00 0.00 0.00 0.00 0.00 0.00 0.00 0.00 0.00 0.00 0.00 0.00
0.00 0.00 0.00 0.00 0.00 0.00 0.00 0.00 0.00 0.00 0.00 0.00 0.00 0.00 0.00 0.00 0.00 0.00 0.00 0.00 0.00 0.00 0.00 0.00 0.00 0.00 0.00 0.00 0.00 0.00 0.00 0.00 0.00 0.00 0.00 0.00 0.00 0.00 0.00 0.00 0.00 0.00 0.00 0.00
0.00 0.00 0.00 0.00 0.00 0.00 0.00 0.00 0.00 0.00 0.00 0.00 0.00 0.00 0.00 0.00 0.00 0.00 0.00 0.00 0.00 0.00 0.00 0.00 0.00 0.00 0.00 0.00 0.00 0.00 0.00 0.00 0.00 0.00 0.00 0.00 0.00 0.00 0.00 0.00 0.00 0.00 0.00 0.00
0.00 0.00 0.00 0.00 0.00 0.00 0.00 0.00 0.00 0.00 0.00 0.00 0.00 0.00 0.00 0.00 0.00 0.00 0.00 0.00 0.00 0.00 0.00 0.00 0.00 0.00 0.00 0.00 0.00 0.00 0.00 0.00 0.00 0.00 0.00 0.00 0.00 0.00 0.00 0.00 0.00 0.00 0.00 0.00
0.00 0.00 0.00 0.00 0.00 0.00 0.00 0.00 0.00 0.00 0.00 0.00 0.00 0.00 0.00 0.00 0.00 0.00 0.00 0.00 0.00 0.00 0.00 0.00 0.00 0.00 0.00 0.00 0.00 0.00 0.00 0.00 0.00 0.00 0.00 0.00 0.00 0.00 0.00 0.00 0.00 0.00 0.00 0.00
0.00 0.00 0.00 0.00 0.00 0.00 0.00 0.00 0.00 0.00 0.00 0.00 0.00 0.00 0.00 0.00 0.00 0.00 0.00 0.00 0.00 0.00 0.00 0.00 0.00 0.00 0.00 0.00 0.00 0.00 0.00 0.00 0.00 0.00 0.00 0.00 0.00 0.00 0.00 0.00 0.00 0.00 0.00 0.00
0.00 0.00 0.00 0.00 0.00 0.00 0.00 0.00 0.00 0.00 0.00 0.00 0.00 0.00 0.00 0.00 0.00 0.00 0.00 0.00 0.00 0.00 0.00 0.00 0.00 0.00 0.00 0.00 0.00 0.00 0.00 0.00 0.00 0.00 0.00 0.00 0.00 0.00 0.00 0.00 0.00 0.00 0.00 0.00
0.00 0.00 0.00 0.00 0.00 0.00 0.00 0.00 0.00 0.00 0.00 0.00 0.00 0.00 0.00 0.00 0.00 0.00 0.00 0.00 0.00 0.00 0.00 0.00 0.02 0.10 0.09 0.08 0.07 0.01 0.01 0.02 0.02 0.01 0.00 0.00 0.00 0.00 0.00 0.00 0.00 0.00 0.00 0.00
0.00 0.00 0.00 0.00 0.00 0.00 0.00 0.00 0.00 0.00 0.00 0.00 0.00 0.00 0.00 0.00 0.00 0.00 0.00 0.00 0.00 0.00 0.00 0.00 0.04 0.12 0.16 0.15 0.13 0.09 0.03 0.02 0.01 0.00 0.00 0.00 0.00 0.00 0.00 0.00 0.00 0.00 0.00 0.00
0.00 0.00 0.00 0.00 0.00 0.00 0.00 0.00 0.00 0.00 0.00 0.00 0.00 0.00 0.00 0.00 0.00 0.00 0.00 0.00 0.00 0.00 0.00 0.00 0.01 0.08 0.21 0.16 0.10 0.10 0.06 0.02 0.00 0.00 0.00 0.00 0.00 0.00 0.00 0.00 0.00 0.00 0.00 0.00
0.00 0.00 0.00 0.00 0.00 0.00 0.00 0.00 0.00 0.00 0.00 0.00 0.00 0.00 0.00 0.00 0.00 0.00 0.00 0.00 0.00 0.00 0.00 0.01 0.03 0.11 0.15 0.16 0.13 0.04 0.02 0.01 0.00 0.00 0.00 0.00 0.00 0.00 0.00 0.00 0.00 0.00 0.00 0.00
0.00 0.00 0.00 0.00 0.00 0.00 0.00 0.00 0.00 0.00 0.00 0.00 0.00 0.00 0.00 0.00 0.00 0.00 0.00 0.00 0.00 0.00 0.00 0.01 0.01 0.07 0.14 0.18 0.11 0.06 0.02 0.01 0.00 0.00 0.00 0.00 0.00 0.00 0.00 0.00 0.00 0.00 0.00 0.00
0.00 0.00 0.00 0.00 0.00 0.00 0.00 0.00 0.00 0.00 0.00 0.00 0.00 0.00 0.00 0.00 0.00 0.00 0.00 0.00 0.00 0.00 0.00 0.01 0.03 0.04 0.07 0.12 0.11 0.08 0.04 0.01 0.00 0.00 0.00 0.00 0.00 0.00 0.00 0.00 0.00 0.00 0.00 0.00
0.00 0.00 0.00 0.00 0.00 0.00 0.00 0.00 0.00 0.00 0.00 0.00 0.00 0.00 0.00 0.00 0.00 0.00 0.00 0.01 0.00 0.01 0.01 0.02 0.05 0.08 0.11 0.07 0.06 0.04 0.01 0.00 0.00 0.00 0.00 0.00 0.00 0.00 0.00 0.00 0.00 0.00 0.00 0.00
0.00 0.00 0.00 0.00 0.00 0.00 0.00 0.00 0.00 0.00 0.00 0.00 0.00 0.00 0.00 0.00 0.01 0.00 0.00 0.02 0.03 0.04 0.05 0.05 0.03 0.02 0.02 0.01 0.00 0.00 0.00 0.00 0.00 0.00 0.00 0.00 0.00 0.00 0.00 0.00 0.00 0.00 0.00 0.00
0.01 0.01 0.01 0.00 0.00 0.00 0.00 0.00 0.00 0.00 0.00 0.00 0.00 0.00 0.00 0.00 0.00 0.00 0.02 0.05 0.08 0.06 0.05 0.03 0.03 0.00 0.00 0.00 0.00 0.00 0.00 0.00 0.00 0.00 0.00 0.00 0.00 0.00 0.00 0.00 0.00 0.00 0.00 0.00
0.02 0.01 0.00 0.00 0.00 0.01 0.00 0.00 0.00 0.00 0.00 0.00 0.00 0.00 0.00 0.00 0.01 0.02 0.05 0.04 0.05 0.05 0.03 0.01 0.00 0.00 0.00 0.00 0.00 0.00 0.00 0.00 0.00 0.00 0.00 0.00 0.00 0.00 0.00 0.00 0.00 0.00 0.00 0.00
0.00 0.00 0.00 0.00 0.01 0.01 0.01 0.00 0.00 0.00 0.00 0.00 0.00 0.00 0.01 0.04 0.02 0.03 0.04 0.06 0.06 0.03 0.00 0.00 0.00 0.00 0.00 0.00 0.00 0.00 0.00 0.00 0.00 0.00 0.00 0.00 0.00 0.00 0.00 0.00 0.00 0.00 0.00 0.00
0.00 0.00 0.00 0.00 0.00 0.00 0.00 0.00 0.00 0.00 0.00 0.00 0.00 0.01 0.08 0.04 0.01 0.03 0.04 0.06 0.03 0.00 0.00 0.00 0.00 0.00 0.00 0.00 0.00 0.00 0.00 0.00 0.00 0.00 0.00 0.00 0.00 0.00 0.00 0.00 0.00 0.00 0.00 0.00
0.00 0.00 0.01 0.00 0.00 0.00 0.00 0.00 0.01 0.01 0.00 0.00 0.00 0.00 0.01 0.01 0.03 0.06 0.05 0.04 0.01 0.00 0.00 0.00 0.00 0.00 0.00 0.00 0.00 0.00 0.00 0.00 0.00 0.00 0.00 0.00 0.00 0.00 0.00 0.00 0.00 0.00 0.00 0.00
0.01 0.00 0.00 0.00 0.00 0.00 0.02 0.01 0.04 0.03 0.03 0.00 0.00 0.01 0.02 0.06 0.06 0.03 0.05 0.02 0.00 0.00 0.00 0.00 0.00 0.00 0.00 0.00 0.00 0.00 0.00 0.00 0.00 0.00 0.00 0.00 0.00 0.00 0.00 0.00 0.00 0.00 0.00 0.00
0.00 0.00 0.00 0.00 0.00 0.01 0.01 0.02 0.03 0.00 0.00 0.01 0.00 0.01 0.02 0.02 0.02 0.03 0.04 0.02 0.00 0.00 0.00 0.00 0.00 0.00 0.00 0.00 0.00 0.00 0.00 0.00 0.00 0.00 0.00 0.00 0.00 0.00 0.00 0.00 0.00 0.00 0.00 0.00
0.00 0.00 0.00 0.00 0.00 0.00 0.00 0.00 0.00 0.00 0.00 0.00 0.00 0.01 0.01 0.01 0.01 0.01 0.03 0.02 0.00 0.00 0.00 0.00 0.00 0.00 0.00 0.00 0.00 0.00 0.00 0.00 0.00 0.00 0.00 0.00 0.00 0.00 0.00 0.00 0.00 0.00 0.00 0.00
0.00 0.00 0.00 0.00 0.01 0.00 0.00 0.00 0.00 0.00 0.00 0.00 0.00 0.00 0.01 0.01 0.03 0.03 0.01 0.00 0.00 0.00 0.00 0.00 0.00 0.00 0.00 0.00 0.00 0.00 0.00 0.00 0.00 0.00 0.00 0.00 0.00 0.00 0.00 0.00 0.00 0.00 0.00 0.00
0.00 0.00 0.00 0.00 0.00 0.00 0.00 0.00 0.00 0.00 0.00 0.01 0.01 0.00 0.01 0.01 0.01 0.02 0.02 0.00 0.00 0.00 0.00 0.00 0.00 0.00 0.00 0.00 0.00 0.00 0.00 0.00 0.00 0.00 0.00 0.00 0.00 0.00 0.00 0.00 0.00 0.00 0.00 0.00
MSLP
1007.26 1007.04 1007.02 1006.62 1006.28 1006.07 1006.05 1005.41 1004.92 1003.79 1003.43 1003.80 1004.37 1004.35 1003.96 1003.70 1003.20 1002.85 1002.54 1002.41 1002.49 1002.74 1003.23 1003.82 1004.45 1004.85 1005.34 1005.70 1006.22 1006.78 1007.44 1007.90 1008.16 1008.67 1009.24 1009.66 1009.98 1010.33 1010.74 1011.25 1011.44 1011.89 1012.16 1012.31
1007.87 1007.41 1007.31 1006.92 1006.55 1006.21 1005.90 1005.61 1005.26 1005.09 1004.30 1005.45 1005.53 1005.35 1004.94 1004.70 1004.12 1003.36 1002.94 1002.47 1002.36 1002.74 1003.10 1003.48 1003.79 1004.18 1004.79 1005.36 1005.91 1006.51 1006.94 1007.29 1007.93 1008.54 1009.01 1009.30 1009.62 1010.04 1010.66 1011.20 1011.62 1011.86 1012.12 1012.29
1007.97 1008.16 1007.61 1006.54 1006.08 1005.80 1005.67 1006.31 1006.32 1005.84 1005.99 1006.54 1006.07 1006.20 1006.16 1005.68 1005.32 1004.50 1003.58 1002.94 1002.44 1002.45 1002.58 1002.88 1003.08 1003.69 1004.20 1004.84 1005.57 1006.18 1006.63 1007.13 1007.71 1008.23 1008.58 1008.95 1009.46 1010.05 1010.47 1010.91 1011.36 1011.93 1012.43 1012.81
1008.97 1008.96 1007.60 1006.35 1006.49 1006.45 1006.42 1006.65 1006.98 1007.15 1007.32 1007.31 1006.92 1006.49 1006.58 1006.38 1005.94 1005.17 1004.40 1003.87 1003.08 1002.57 1002.59 1003.01 1003.50 1003.50 1003.92 1004.58 1005.11 1005.66 1006.38 1006.94 1007.47 1007.95 1008.46 1009.03 1009.47 1009.96 1010.52 1010.95 1011.47 1012.11 1012.63 1013.16
1009.63 1008.74 1007.42 1007.23 1007.49 1007.35 1006.97 1006.71 1007.46 1007.58 1007.65 1007.54 1007.07 1006.51 1006.42 1006.27 1006.26 1005.82 1004.90 1004.02 1003.44 1003.07 1003.01 1003.04 1003.55 1004.25 1004.51 1004.49 1004.93 1005.38 1005.99 1006.67 1007.29 1007.86 1008.47 1009.08 1009.62 1010.08 1010.57 1011.15 1011.82 1012.26 1012.77 1013.01
1010.43 1009.27 1007.95 1007.72 1007.97 1008.19 1008.16 1007.11 1008.11 1008.48 1008.27 1008.02 1007.49 1006.61 1006.39 1006.68 1006.52 1005.79 1005.02 1004.12 1003.43 1003.08 1003.08 1003.27 1003.34 1004.11 1004.16 1004.75 1004.79 1005.10 1005.85 1006.49 1007.14 1007.72 1008.30 1008.97 1009.62 1010.28 1010.81 1011.31 1011.86 1012.32 1012.88 1013.19
1010.15 1009.68 1008.63 1008.82 1008.80 1008.82 1008.69 1009.01 1009.14 1009.09 1008.98 1008.83 1008.45 1008.23 1007.88 1007.50 1006.90 1006.34 1005.38 1004.29 1003.74 1003.51 1003.42 1003.28 1003.57 1003.73 1003.87 1004.62 1004.94 1005.53 1005.97 1006.71 1007.24 1007.70 1008.34 1009.07 1009.88 1010.52 1010.88 1011.31 1011.91 1012.44 1013.07 1013.64
1010.65 1010.15 1009.45 1009.48 1009.32 1009.56 1010.01 1009.89 1009.73 1009.50 1009.37 1009.16 1008.87 1008.44 1007.97 1007.53 1007.11 1006.52 1005.47 1004.65 1004.14 1003.70 1003.45 1003.68 1004.03 1003.92 1004.14 1004.65 1005.35 1005.95 1006.62 1007.36 1007.98 1008.34 1008.76 1009.46 1010.20 1011.06 1011.30 1011.61 1012.09 1012.83 1013.33 1013.83
1011.34 1010.20 1010.10 1010.31 1010.31 1010.36 1010.36 1010.17 1009.74 1009.63 1009.40 1009.27 1008.85 1008.50 1008.24 1007.73 1007.26 1006.72 1005.91 1005.40 1004.65 1004.26 1003.88 1003.72 1004.20 1004.54 1004.47 1005.01 1005.80 1006.70 1007.61 1008.30 1008.83 1009.45 1009.90 1010.18 1010.55 1011.69 1012.30 1012.58 1012.61 1012.95 1013.63 1014.05
1011.67 1010.73 1010.67 1010.72 1010.68 1010.43 1010.32 1010.16 1010.02 1009.71 1009.45 1009.19 1008.74 1008.47 1008.19 1007.92 1007.39 1006.82 1006.24 1005.69 1005.48 1004.80 1004.59 1004.47 1004.36 1004.71 1004.98 1005.70 1006.13 1006.48 1007.53 1009.52 1009.87 1010.82 1011.01 1011.11 1011.01 1011.77 1012.74 1013.13 1013.34 1013.56 1013.78 1013.98
1011.68 1011.69 1011.08 1010.54 1010.35 1010.47 1010.15 1009.97 1009.74 1009.55 1009.38 1009.02 1008.70 1008.23 1008.00 1007.58 1007.19 1006.66 1006.32 1006.23 1005.70 1005.43 1005.02 1004.83 1004.86 1004.87 1005.28 1005.72 1006.28 1006.72 1006.27 1009.88 1010.23 1011.39 1011.75 1012.78 1013.59 1013.79 1014.38 1014.89 1014.65 1014.45 1014.60 1014.61
1011.30 1011.56 1011.34 1011.17 1010.76 1010.43 1010.08 1009.79 1009.55 1009.33 1008.67 1008.32 1008.29 1007.94 1007.60 1007.26 1007.09 1006.80 1006.33 1006.09 1005.89 1005.70 1005.31 1005.36 1005.68 1005.55 1005.42 1005.72 1006.17 1006.99 1008.41 1009.57 1010.21 1011.75 1011.86 1013.04 1014.31 1015.39 1016.04 1016.21 1016.01 1016.39 1016.04 1015.65
1011.64 1011.66 1011.43 1010.96 1010.59 1010.07 1009.74 1009.42 1008.94 1008.60 1008.29 1007.76 1007.34 1007.22 1006.72 1006.45 1006.36 1006.23 1006.04 1005.89 1005.84 1005.73 1005.59 1005.69 1005.91 1005.97 1005.72 1005.75 1006.21 1006.96 1008.18 1009.17 1008.80 1010.31 1012.78 1012.52 1014.44 1015.75 1016.70 1017.37 1016.58 1017.34 1017.58 1017.04
1011.88 1011.61 1011.07 1010.30 1009.94 1009.58 1009.42 1009.07 1008.65 1008.22 1007.71 1007.21 1006.66 1006.44 1006.19 1006.01 1005.79 1005.62 1005.35 1005.37 1005.65 1005.98 1006.05 1005.75 1005.65 1005.68 1005.78 1005.88 1005.95 1006.64 1007.90 1008.91 1009.54 1010.04 1010.69 1012.22 1014.17 1015.61 1016.12 1016.69 1015.82 1017.01 1017.67 1017.63
1011.63 1011.43 1010.90 1010.36 1009.84 1009.10 1008.78 1008.47 1008.06 1007.49 1006.86 1006.33 1005.93 1005.77 1005.62 1005.34 1005.21 1005.07 1005.10 1005.32 1005.63 1005.81 1005.77 1005.73 1005.66 1005.70 1005.70 1005.84 1006.06 1006.61 1007.27 1007.85 1007.68 1009.32 1011.14 1011.25 1013.06 1015.03 1015.70 1016.20 1015.72 1016.71 1017.87 1017.51
1011.39 1011.05 1010.59 1010.08 1009.25 1008.55 1008.07 1007.74 1007.40 1006.73 1006.29 1005.81 1005.37 1004.96 1004.86 1004.85 1004.77 1004.74 1005.00 1005.27 1005.48 1005.73 1005.91 1005.86 1005.76 1005.92 1005.96 1006.35 1006.93 1007.64 1008.22 1008.71 1009.12 1010.53 1011.51 1012.48 1013.04 1013.69 1014.62 1015.63 1016.20 1017.32 1018.28 1017.89
1010.92 1010.42 1010.00 1009.38 1008.70 1008.13 1007.52 1007.10 1006.67 1006.10 1005.76 1005.35 1004.78 1004.60 1004.46 1004.35 1004.36 1004.43 1004.59 1005.02 1005.55 1005.80 1006.06 1006.25 1006.33 1006.38 1006.73 1006.81 1007.35 1008.00 1008.56 1009.39 1010.02 1011.32 1012.19 1012.72 1013.64 1014.06 1013.55 1015.64 1016.54 1017.66 1018.25 1018.19
1010.61 1009.86 1009.50 1009.15 1008.53 1007.78 1007.01 1006.42 1005.91 1005.40 1005.01 1004.61 1004.46 1004.26 1004.14 1003.98 1003.88 1004.17 1004.49 1004.93 1005.70 1006.04 1006.26 1006.53 1006.66 1006.94 1007.14 1007.70 1008.24 1008.65 1009.29 1009.99 1010.84 1011.55 1012.31 1012.89 1013.08 1014.47 1015.18 1015.40 1016.32 1016.92 1017.48 1017.94
1010.07 1009.44 1008.87 1008.36 1007.70 1006.93 1006.25 1005.48 1005.03 1004.58 1004.32 1004.10 1003.91 1003.66 1003.53 1003.43 1003.56 1003.80 1004.31 1004.86 1005.48 1006.25 1006.80 1007.07 1007.57 1007.59 1007.80 1008.49 1008.93 1009.53 1010.26 1010.82 1011.59 1012.22 1012.67 1013.36 1013.87 1014.29 1015.54 1015.50 1016.29 1017.24 1017.59 1017.40
1009.57 1008.75 1008.18 1007.39 1006.50 1005.65 1004.83 1004.44 1004.08 1003.70 1003.62 1003.52 1003.27 1003.19 1002.96 1002.88 1003.21 1003.52 1004.04 1004.64 1004.85 1005.47 1005.79 1007.09 1007.62 1007.96 1008.72 1008.68 1009.58 1009.84 1010.49 1011.14 1011.85 1012.50 1013.02 1013.48 1013.93 1014.62 1015.70 1016.25 1016.93 1017.22 1017.72 1017.55
1009.13 1008.34 1007.55 1006.62 1005.57 1004.51 1003.36 1003.00 1003.17 1003.14 1002.99 1002.91 1002.72 1002.48 1002.41 1002.43 1002.89 1003.47 1004.20 1004.93 1005.32 1005.95 1006.89 1007.30 1008.16 1008.58 1009.11 1009.58 1010.44 1010.51 1011.16 1011.87 1012.76 1013.32 1013.44 1013.50 1014.13 1014.94 1016.18 1016.64 1017.23 1017.53 1017.82 1017.98
1008.78 1008.06 1007.23 1006.37 1005.19 1004.02 1003.24 1002.87 1002.75 1002.54 1002.45 1002.30 1002.15 1002.18 1002.29 1002.28 1002.74 1003.43 1004.24 1004.80 1005.89 1005.79 1007.08 1008.03 1008.57 1009.14 1009.77 1010.55 1010.99 1011.11 1011.93 1012.06 1013.00 1013.41 1013.05 1013.88 1014.33 1015.31 1016.00 1016.63 1017.17 1017.60 1017.96 1018.25
1008.96 1008.19 1007.38 1006.52 1005.27 1004.21 1003.61 1003.12 1002.91 1002.64 1002.35 1001.99 1001.83 1001.75 1001.86 1002.00 1002.62 1003.62 1004.74 1005.37 1005.72 1006.69 1007.32 1008.07 1008.97 1009.70 1010.39 1010.38 1010.67 1011.54 1012.14 1012.62 1013.48 1013.45 1013.76 1014.11 1014.53 1015.27 1015.91 1016.29 1016.88 1017.56 1017.94 1017.90
1009.13 1008.25 1007.57 1006.45 1005.66 1004.84 1004.37 1004.14 1003.67 1003.24 1002.87 1002.43 1002.00 1001.58 1002.07 1002.54 1003.14 1003.60 1004.32 1005.20 1006.24 1007.12 1007.59 1008.58 1009.49 1009.94 1010.00 1010.80 1011.28 1011.87 1012.28 1012.72 1013.23 1013.74 1014.05 1014.76 1015.25 1015.84 1016.21 1016.52 1016.89 1017.24 1017.60 1017.50
1009.33 1008.64 1008.15 1007.32 1006.52 1006.14 1005.51 1005.11 1004.56 1003.90 1003.58 1003.16 1002.62 1002.40 1002.33 1002.60 1002.71 1004.05 1004.72 1005.42 1006.45 1007.35 1008.26 1009.39 1009.88 1010.20 1010.35 1010.91 1011.30 1011.75 1012.17 1012.78 1013.35 1013.72 1014.38 1014.81 1015.08 1016.04 1016.48 1016.51 1016.33 1016.82 1017.06 1016.94
1009.72 1009.15 1008.72 1008.24 1007.50 1006.89 1006.53 1005.96 1005.42 1004.99 1004.51 1004.15 1003.64 1003.42 1003.24 1003.75 1004.30 1004.92 1005.87 1006.50 1007.07 1007.70 1008.47 1009.64 1009.88 1009.99 1010.33 1010.90 1011.45 1012.01 1012.42 1013.09 1013.43 1013.73 1014.46 1014.89 1014.97 1015.50 1016.12 1016.29 1016.57 1016.59 1016.54 1016.91
1009.65 1009.33 1008.90 1008.34 1007.92 1007.52 1007.06 1006.72 1006.21 1005.86 1005.61 1005.40 1005.35 1005.22 1005.33 1005.64 1005.88 1006.50 1007.11 1007.28 1007.55 1007.89 1008.75 1009.47 1010.03 1010.29 1010.67 1011.29 1011.62 1012.14 1012.45 1012.79 1013.22 1013.52 1014.14 1014.68 1014.66 1014.90 1015.52 1015.92 1016.40 1016.34 1016.23 1016.30
Thickness
5753 5757 5755 5760 5766 5771 5756 5770 5757 5789 5792 5806 5803 5808 5819 5827 5836 5843 5849 5852 5856 5856 5855 5852 5849 5846 5843 5841 5838 5835 5829 5826 5824 5821 5817 5815 5812 5810 5808 5803 5800 5796 5792 5789
5731 5746 5742 5736 5750 5757 5762 5765 5765 5769 5778 5786 5792 5800 5807 5811 5821 5831 5840 5848 5852 5852 5852 5849 5849 5849 5844 5840 5836 5833 5829 5826 5823 5818 5815 5813 5811 5808 5804 5800 5794 5792 5790 5787
5713 5722 5723 5719 5742 5753 5756 5745 5749 5752 5766 5766 5776 5777 5783 5795 5803 5813 5827 5838 5847 5848 5850 5850 5850 5847 5844 5841 5838 5832 5829 5826 5821 5817 5814 5811 5807 5802 5799 5796 5792 5787 5783 5779
5693 5697 5679 5730 5741 5739 5736 5735 5737 5739 5744 5751 5760 5771 5774 5783 5789 5800 5810 5820 5833 5842 5845 5845 5842 5843 5844 5840 5836 5832 5826 5822 5819 5815 5809 5805 5801 5797 5793 5790 5786 5780 5776 5771
5672 5680 5703 5712 5712 5715 5718 5726 5723 5723 5729 5737 5749 5761 5761 5772 5778 5786 5798 5810 5821 5831 5834 5836 5833 5829 5828 5830 5829 5826 5822 5818 5814 5810 5803 5798 5793 5790 5787 5782 5777 5773 5769 5768
5655 5658 5662 5689 5698 5703 5702 5699 5705 5703 5707 5714 5728 5733 5745 5753 5761 5775 5789 5803 5812 5821 5825 5825 5826 5823 5824 5817 5819 5818 5814 5811 5808 5804 5798 5792 5788 5782 5778 5774 5769 5766 5761 5760
5653 5648 5668 5678 5681 5684 5666 5678 5682 5687 5689 5691 5697 5708 5719 5729 5740 5756 5772 5788 5799 5805 5808 5812 5814 5815 5816 5810 5808 5809 5806 5801 5798 5794 5789 5784 5778 5774 5771 5767 5762 5757 5752 5748
5637 5633 5636 5668 5669 5659 5657 5662 5664 5667 5671 5676 5684 5692 5702 5713 5721 5733 5751 5769 5781 5788 5794 5797 5799 5802 5802 5799 5797 5799 5791 5785 5780 5778 5775 5771 5766 5759 5758 5756 5753 5745 5741 5737
5627 5641 5645 5647 5644 5645 5646 5645 5649 5652 5656 5659 5668 5673 5682 5692 5703 5714 5729 5744 5761 5770 5776 5782 5784 5785 5787 5785 5780 5774 5769 5765 5764 5760 5756 5754 5752 5744 5739 5738 5739 5737 5730 5726
5612 5627 5625 5626 5631 5635 5635 5634 5636 5640 5643 5646 5651 5657 5664 5672 5684 5696 5710 5722 5732 5749 5755 5759 5766 5769 5772 5767 5764 5763 5756 5741 5742 5736 5735 5735 5739 5734 5730 5727 5724 5723 5721 5719
5601 5604 5612 5618 5621 5619 5624 5627 5628 5628 5630 5635 5640 5647 5650 5660 5667 5681 5692 5700 5711 5721 5734 5742 5748 5754 5755 5751 5748 5746 5757 5727 5728 5722 5719 5706 5702 5705 5704 5701 5704 5708 5707 5706
5591 5596 5596 5598 5605 5608 5609 5612 5614 5615 5622 5628 5630 5635 5642 5648 5653 5662 5674 5683 5690 5698 5710 5717 5722 5731 5736 5735 5735 5729 5723 5716 5712 5703 5704 5695 5686 5679 5676 5677 5679 5676 5681 5686
5584 5586 5586 5591 5595 5599 5599 5603 5608 5610 5613 5619 5627 5630 5637 5642 5647 5652 5660 5667 5674 5684 5693 5701 5704 5709 5716 5722 5721 5717 5711 5709 5713 5698 5681 5689 5672 5662 5659 5655 5663 5657 5657 5664
5576 5576 5578 5585 5586 5592 5591 5594 5598 5602 5607 5613 5622 5626 5630 5634 5640 5646 5653 5657 5659 5663 5672 5682 5690 5696 5701 5704 5708 5708 5702 5696 5695 5693 5685 5674 5659 5648 5647 5647 5661 5652 5644 5648
5567 5567 5569 5574 5576 5582 5585 5587 5589 5595 5602 5608 5616 5621 5624 5629 5634 5640 5644 5645 5646 5650 5657 5665 5673 5681 5688 5689 5693 5694 5693 5692 5698 5682 5667 5675 5657 5638 5634 5635 5646 5638 5630 5638
5562 5562 5563 5565 5572 5577 5579 5582 5585 5592 5595 5601 5609 5617 5622 5624 5628 5633 5633 5634 5635 5637 5641 5649 5656 5662 5668 5669 5668 5669 5671 5669 5669 5661 5657 5652 5644 5639 5633 5632 5629 5620 5616 5625
5555 5557 5558 5560 5564 5569 5574 5578 5582 5589 5592 5597 5605 5610 5615 5618 5620 5623 5625 5627 5625 5627 5629 5632 5636 5643 5645 5648 5652 5655 5657 5654 5652 5646 5642 5641 5634 5631 5638 5623 5619 5609 5607 5611
5551 5554 5553 5553 5555 5559 5565 5572 5578 5586 5591 5596 5599 5603 5605 5610 5613 5614 5617 5617 5613 5614 5615 5618 5622 5626 5629 5630 5632 5636 5637 5636 5636 5634 5627 5623 5623 5615 5613 5618 5612 5609 5606 5604
5547 5551 5553 5553 5555 5558 5563 5570 5575 5582 5587 5590 5593 5596 5600 5605 5608 5610 5609 5606 5604 5602 5602 5604 5605 5611 5611 5612 5615 5616 5615 5617 5616 5614 5613 5606 5609 5610 5599 5607 5603 5597 5598 5602
5546 5551 5551 5553 5557 5561 5567 5570 5575 5580 5581 5583 5588 5591 5595 5599 5601 5603 5602 5600 5603 5601 5597 5593 5597 5597 5595 5602 5598 5602 5603 5606 5605 5601 5599 5599 5599 5597 5590 5589 5589 5590 5586 5591
5545 5549 5551 5554 5558 5562 5570 5571 5570 5572 5575 5579 5583 5589 5591 5596 5598 5598 5593 5589 5589 5586 5580 5583 5582 5583 5586 5589 5585 5589 5589 5589 5585 5584 5586 5590 5588 5585 5577 5579 5576 5577 5577 5579
5546 5549 5551 5552 5556 5562 5565 5565 5568 5574 5578 5582 5585 5587 5589 5594 5594 5590 5584 5582 5573 5581 5577 5572 5572 5573 5574 5573 5572 5577 5573 5578 5572 5575 5585 5582 5582 5575 5572 5570 5567 5567 5567 5566
5543 5545 5547 5550 5557 5563 5566 5570 5571 5574 5578 5583 5586 5589 5590 5592 5589 5581 5573 5570 5570 5569 5574 5572 5568 5566 5562 5568 5571 5567 5565 5566 5560 5566 5571 5572 5572 5567 5563 5563 5561 5558 5558 5561
5540 5542 5546 5549 5554 5560 5564 5564 5566 5571 5574 5578 5583 5588 5584 5583 5581 5580 5576 5572 5567 5566 5571 5566 5561 5560 5565 5563 5562 5561 5562 5561 5559 5559 5561 5556 5555 5552 5553 5554 5554 5555 5554 5556
5536 5537 5540 5544 5549 5550 5554 5558 5563 5566 5568 5571 5576 5579 5580 5581 5583 5576 5570 5571 5567 5565 5562 5555 5556 5557 5562 5560 5561 5561 5561 5559 5557 5558 5554 5552 5552 5545 5544 5549 5555 5552 5553 5556
5530 5532 5534 5537 5541 5545 5547 5551 5557 5559 5564 5566 5569 5569 5573 5572 5568 5565 5561 5559 5562 5562 5561 5555 5557 5560 5561 5560 5558 5557 5557 5554 5553 5553 5547 5546 5550 5547 5543 5545 5546 5549 5551 5548
5531 5530 5534 5539 5541 5541 5543 5547 5552 5554 5556 5559 5558 5557 5557 5555 5555 5553 5554 5557 5559 5561 5557 5554 5554 5556 5557 5554 5554 5551 5552 5552 5550 5551 5546 5543 5548 5548 5544 5542 5539 5543 5546 5547